QPF
0.02 0.02 0.02 0.02 0.02 0.02 0.02 0.02 0.02 0.02 0.03 0.05 0.07 0.14 0.14 0.08 0.06 0.07 0.03 0.05 0.07 0.08 0.09 0.11 0.11 0.09 0.10 0.10 0.08 0.07 0.06 0.06 0.06 0.05 0.05 0.04 0.03 0.03 0.03 0.03 0.03 0.04 0.04
0.01 0.01 0.01 0.01 0.01 0.01 0.02 0.02 0.02 0.02 0.03 0.04 0.05 0.04 0.06 0.05 0.05 0.08 0.06 0.04 0.05 0.07 0.08 0.10 0.10 0.08 0.08 0.08 0.07 0.06 0.06 0.04 0.04 0.04 0.05 0.05 0.04 0.03 0.02 0.02 0.03 0.03 0.04
0.01 0.01 0.01 0.01 0.02 0.02 0.02 0.02 0.02 0.02 0.02 0.04 0.05 0.04 0.02 0.02 0.04 0.06 0.08 0.08 0.07 0.07 0.08 0.08 0.08 0.07 0.06 0.06 0.06 0.05 0.06 0.06 0.03 0.03 0.04 0.04 0.04 0.04 0.02 0.02 0.02 0.03 0.03
0.01 0.01 0.01 0.01 0.02 0.02 0.01 0.01 0.01 0.02 0.02 0.03 0.03 0.03 0.03 0.03 0.04 0.05 0.07 0.12 0.11 0.08 0.08 0.09 0.08 0.06 0.05 0.05 0.05 0.05 0.05 0.05 0.04 0.02 0.02 0.02 0.02 0.04 0.05 0.04 0.03 0.02 0.02
0.01 0.01 0.00 0.01 0.01 0.01 0.01 0.01 0.01 0.02 0.03 0.02 0.03 0.04 0.05 0.05 0.05 0.04 0.05 0.09 0.12 0.10 0.09 0.09 0.08 0.07 0.05 0.04 0.04 0.04 0.04 0.04 0.04 0.03 0.02 0.02 0.02 0.03 0.04 0.05 0.05 0.04 0.03
0.02 0.01 0.01 0.01 0.01 0.01 0.01 0.01 0.01 0.02 0.02 0.02 0.03 0.03 0.04 0.05 0.05 0.04 0.04 0.06 0.10 0.09 0.10 0.11 0.10 0.08 0.06 0.05 0.05 0.06 0.04 0.03 0.03 0.03 0.03 0.03 0.03 0.03 0.04 0.04 0.05 0.05 0.04
0.02 0.01 0.01 0.01 0.02 0.01 0.01 0.01 0.01 0.01 0.01 0.02 0.02 0.03 0.04 0.05 0.05 0.05 0.07 0.07 0.08 0.06 0.07 0.09 0.11 0.09 0.07 0.05 0.04 0.04 0.04 0.03 0.04 0.04 0.03 0.02 0.02 0.02 0.03 0.04 0.04 0.04 0.04
0.03 0.02 0.02 0.02 0.02 0.02 0.01 0.01 0.01 0.02 0.02 0.03 0.03 0.05 0.04 0.05 0.05 0.06 0.06 0.07 0.06 0.05 0.05 0.08 0.09 0.07 0.05 0.05 0.05 0.03 0.03 0.04 0.04 0.04 0.03 0.03 0.02 0.03 0.03 0.04 0.04 0.05 0.04
0.02 0.02 0.02 0.02 0.02 0.02 0.02 0.02 0.02 0.03 0.04 0.04 0.05 0.05 0.04 0.05 0.05 0.05 0.06 0.07 0.06 0.05 0.05 0.06 0.08 0.08 0.05 0.04 0.04 0.04 0.03 0.04 0.04 0.04 0.05 0.05 0.04 0.04 0.03 0.03 0.03 0.04 0.04
0.02 0.02 0.02 0.02 0.01 0.02 0.03 0.04 0.04 0.04 0.05 0.05 0.05 0.03 0.03 0.04 0.05 0.06 0.06 0.06 0.06 0.05 0.05 0.06 0.07 0.09 0.08 0.06 0.04 0.04 0.05 0.05 0.06 0.05 0.04 0.04 0.03 0.04 0.04 0.03 0.03 0.03 0.03
0.03 0.03 0.02 0.03 0.03 0.04 0.04 0.04 0.04 0.03 0.04 0.03 0.03 0.03 0.03 0.05 0.05 0.07 0.07 0.07 0.08 0.07 0.07 0.07 0.07 0.07 0.09 0.09 0.07 0.06 0.05 0.04 0.04 0.05 0.05 0.05 0.04 0.03 0.02 0.02 0.02 0.02 0.02
0.04 0.04 0.04 0.04 0.03 0.03 0.02 0.01 0.02 0.03 0.04 0.03 0.04 0.04 0.04 0.04 0.05 0.06 0.06 0.08 0.10 0.09 0.08 0.06 0.05 0.05 0.06 0.07 0.07 0.05 0.04 0.04 0.04 0.05 0.06 0.06 0.04 0.04 0.04 0.03 0.03 0.03 0.02
0.03 0.03 0.04 0.04 0.04 0.02 0.02 0.02 0.03 0.04 0.05 0.05 0.06 0.05 0.05 0.04 0.05 0.05 0.04 0.05 0.08 0.08 0.07 0.05 0.05 0.05 0.05 0.05 0.05 0.04 0.02 0.03 0.04 0.05 0.06 0.06 0.05 0.05 0.04 0.03 0.03 0.02 0.01
0.03 0.04 0.03 0.03 0.05 0.03 0.03 0.03 0.04 0.03 0.04 0.05 0.05 0.04 0.04 0.04 0.03 0.04 0.03 0.05 0.08 0.07 0.06 0.06 0.05 0.06 0.05 0.04 0.03 0.03 0.02 0.03 0.04 0.04 0.05 0.06 0.05 0.05 0.04 0.03 0.02 0.02 0.01
0.03 0.03 0.02 0.02 0.03 0.05 0.05 0.05 0.04 0.03 0.03 0.03 0.03 0.03 0.03 0.02 0.02 0.02 0.03 0.05 0.07 0.05 0.05 0.06 0.06 0.07 0.06 0.04 0.03 0.03 0.02 0.03 0.04 0.03 0.03 0.03 0.05 0.06 0.05 0.03 0.03 0.02 0.02
0.04 0.03 0.02 0.02 0.02 0.04 0.05 0.05 0.04 0.03 0.03 0.03 0.03 0.03 0.03 0.03 0.02 0.03 0.04 0.05 0.06 0.04 0.03 0.04 0.04 0.04 0.06 0.06 0.04 0.03 0.02 0.03 0.03 0.03 0.03 0.03 0.03 0.03 0.04 0.05 0.05 0.04 0.04
0.03 0.02 0.02 0.02 0.02 0.02 0.03 0.02 0.02 0.03 0.04 0.04 0.03 0.02 0.03 0.03 0.03 0.03 0.05 0.05 0.03 0.04 0.03 0.04 0.04 0.03 0.04 0.06 0.05 0.03 0.02 0.02 0.03 0.04 0.03 0.02 0.01 0.01 0.02 0.03 0.04 0.04 0.05
0.02 0.02 0.02 0.01 0.02 0.01 0.01 0.01 0.02 0.03 0.05 0.07 0.06 0.03 0.02 0.03 0.03 0.03 0.04 0.05 0.04 0.04 0.04 0.04 0.06 0.04 0.04 0.06 0.06 0.05 0.04 0.03 0.02 0.02 0.02 0.02 0.01 0.01 0.02 0.03 0.02 0.03 0.02
0.02 0.02 0.02 0.02 0.01 0.01 0.01 0.01 0.02 0.03 0.04 0.06 0.06 0.04 0.03 0.02 0.02 0.03 0.04 0.04 0.05 0.05 0.05 0.04 0.05 0.06 0.05 0.06 0.08 0.08 0.05 0.03 0.02 0.02 0.01 0.01 0.02 0.02 0.01 0.02 0.03 0.03 0.03
0.03 0.03 0.02 0.02 0.01 0.01 0.01 0.02 0.03 0.03 0.03 0.04 0.04 0.04 0.03 0.02 0.01 0.02 0.02 0.04 0.05 0.05 0.04 0.03 0.04 0.06 0.07 0.05 0.05 0.05 0.06 0.04 0.03 0.02 0.02 0.01 0.02 0.03 0.03 0.02 0.03 0.03 0.03
0.02 0.03 0.04 0.03 0.02 0.02 0.02 0.02 0.03 0.02 0.01 0.02 0.03 0.03 0.02 0.02 0.02 0.01 0.01 0.02 0.03 0.03 0.03 0.03 0.03 0.04 0.05 0.05 0.04 0.05 0.05 0.05 0.04 0.03 0.02 0.01 0.02 0.02 0.02 0.02 0.02 0.02 0.02
0.03 0.03 0.03 0.04 0.02 0.02 0.02 0.02 0.01 0.01 0.01 0.01 0.01 0.01 0.01 0.01 0.01 0.02 0.02 0.02 0.02 0.02 0.02 0.02 0.02 0.02 0.03 0.03 0.03 0.04 0.05 0.06 0.05 0.04 0.03 0.02 0.01 0.01 0.01 0.01 0.01 0.01 0.01
0.03 0.02 0.02 0.03 0.02 0.01 0.01 0.01 0.01 0.01 0.01 0.01 0.01 0.01 0.01 0.01 0.01 0.02 0.02 0.02 0.02 0.02 0.02 0.02 0.01 0.01 0.02 0.03 0.03 0.03 0.03 0.05 0.05 0.05 0.04 0.03 0.02 0.02 0.01 0.01 0.01 0.01 0.01
0.02 0.02 0.03 0.03 0.02 0.02 0.01 0.00 0.01 0.01 0.01 0.01 0.01 0.01 0.01 0.01 0.01 0.02 0.02 0.02 0.01 0.01 0.01 0.01 0.01 0.02 0.03 0.03 0.03 0.03 0.03 0.04 0.04 0.04 0.04 0.04 0.03 0.02 0.02 0.01 0.01 0.01 0.01
0.02 0.02 0.03 0.03 0.02 0.02 0.02 0.01 0.01 0.01 0.01 0.01 0.01 0.01 0.02 0.02 0.01 0.01 0.01 0.01 0.01 0.01 0.01 0.01 0.01 0.02 0.03 0.03 0.03 0.03 0.03 0.03 0.03 0.03 0.03 0.03 0.02 0.02 0.02 0.02 0.02 0.02 0.02
0.02 0.02 0.03 0.02 0.01 0.02 0.02 0.02 0.02 0.01 0.01 0.01 0.01 0.02 0.02 0.02 0.02 0.02 0.01 0.02 0.01 0.01 0.01 0.02 0.02 0.02 0.03 0.03 0.03 0.02 0.02 0.02 0.03 0.03 0.03 0.03 0.03 0.02 0.02 0.03 0.03 0.03 0.03
MSLP
1006.67 1007.35 1008.09 1008.80 1009.46 1010.04 1010.52 1010.93 1011.26 1011.54 1011.78 1011.99 1012.17 1012.31 1012.42 1012.49 1012.56 1012.64 1012.77 1012.96 1013.25 1013.66 1014.16 1014.77 1015.44 1016.12 1016.80 1017.43 1017.99 1018.46 1018.86 1019.19 1019.48 1019.75 1020.01 1020.28 1020.55 1020.81 1021.05 1021.26 1021.44 1021.57 1021.67
1007.21 1007.91 1008.63 1009.30 1009.89 1010.39 1010.80 1011.14 1011.43 1011.70 1011.95 1012.19 1012.41 1012.60 1012.75 1012.87 1012.97 1013.07 1013.21 1013.41 1013.71 1014.12 1014.62 1015.21 1015.85 1016.51 1017.13 1017.70 1018.18 1018.59 1018.93 1019.23 1019.50 1019.77 1020.05 1020.35 1020.66 1020.96 1021.24 1021.48 1021.68 1021.82 1021.92
1007.80 1008.52 1009.22 1009.84 1010.36 1010.77 1011.10 1011.37 1011.62 1011.87 1012.13 1012.40 1012.66 1012.90 1013.10 1013.26 1013.39 1013.51 1013.66 1013.87 1014.17 1014.56 1015.05 1015.62 1016.22 1016.82 1017.38 1017.88 1018.29 1018.63 1018.91 1019.16 1019.40 1019.66 1019.95 1020.28 1020.62 1020.97 1021.28 1021.56 1021.78 1021.94 1022.06
1008.33 1009.06 1009.74 1010.32 1010.77 1011.10 1011.36 1011.57 1011.78 1012.02 1012.29 1012.59 1012.90 1013.19 1013.44 1013.64 1013.81 1013.95 1014.12 1014.33 1014.62 1015.00 1015.46 1015.99 1016.55 1017.10 1017.60 1018.03 1018.37 1018.65 1018.87 1019.06 1019.27 1019.50 1019.79 1020.11 1020.47 1020.83 1021.18 1021.48 1021.73 1021.91 1022.05
1008.74 1009.47 1010.13 1010.66 1011.06 1011.33 1011.53 1011.69 1011.88 1012.11 1012.40 1012.73 1013.08 1013.43 1013.73 1013.98 1014.18 1014.35 1014.53 1014.74 1015.03 1015.39 1015.82 1016.32 1016.84 1017.34 1017.79 1018.16 1018.46 1018.68 1018.84 1018.99 1019.15 1019.35 1019.61 1019.91 1020.25 1020.61 1020.95 1021.26 1021.53 1021.73 1021.89
1008.99 1009.72 1010.35 1010.85 1011.20 1011.43 1011.59 1011.72 1011.89 1012.13 1012.44 1012.80 1013.20 1013.59 1013.94 1014.23 1014.47 1014.67 1014.86 1015.08 1015.35 1015.69 1016.10 1016.57 1017.05 1017.52 1017.94 1018.28 1018.54 1018.73 1018.86 1018.97 1019.09 1019.25 1019.46 1019.72 1020.02 1020.34 1020.66 1020.96 1021.22 1021.44 1021.61
1009.11 1009.82 1010.43 1010.89 1011.21 1011.41 1011.55 1011.67 1011.84 1012.09 1012.41 1012.81 1013.24 1013.67 1014.06 1014.39 1014.65 1014.87 1015.07 1015.29 1015.55 1015.88 1016.26 1016.71 1017.17 1017.62 1018.02 1018.36 1018.61 1018.79 1018.91 1019.00 1019.09 1019.21 1019.37 1019.57 1019.82 1020.09 1020.36 1020.63 1020.87 1021.09 1021.28
1009.13 1009.82 1010.41 1010.85 1011.15 1011.34 1011.47 1011.59 1011.76 1012.02 1012.36 1012.77 1013.22 1013.67 1014.09 1014.44 1014.73 1014.96 1015.16 1015.37 1015.62 1015.93 1016.30 1016.72 1017.17 1017.61 1018.02 1018.37 1018.64 1018.84 1018.97 1019.07 1019.15 1019.24 1019.35 1019.50 1019.68 1019.89 1020.12 1020.34 1020.57 1020.78 1020.98
1009.12 1009.80 1010.36 1010.79 1011.08 1011.27 1011.39 1011.52 1011.70 1011.96 1012.31 1012.73 1013.18 1013.64 1014.06 1014.42 1014.71 1014.94 1015.15 1015.35 1015.58 1015.87 1016.22 1016.63 1017.07 1017.51 1017.94 1018.31 1018.62 1018.85 1019.02 1019.14 1019.22 1019.30 1019.39 1019.50 1019.63 1019.79 1019.96 1020.15 1020.35 1020.55 1020.76
1009.12 1009.77 1010.32 1010.74 1011.04 1011.23 1011.37 1011.51 1011.70 1011.96 1012.30 1012.71 1013.15 1013.60 1014.01 1014.36 1014.64 1014.87 1015.07 1015.26 1015.48 1015.75 1016.08 1016.47 1016.90 1017.35 1017.79 1018.19 1018.54 1018.82 1019.04 1019.19 1019.31 1019.39 1019.48 1019.56 1019.66 1019.78 1019.92 1020.08 1020.26 1020.46 1020.67
1009.12 1009.76 1010.31 1010.73 1011.03 1011.24 1011.40 1011.56 1011.75 1012.01 1012.34 1012.73 1013.15 1013.56 1013.95 1014.28 1014.56 1014.78 1014.97 1015.16 1015.37 1015.63 1015.94 1016.32 1016.74 1017.19 1017.64 1018.06 1018.44 1018.77 1019.03 1019.23 1019.37 1019.49 1019.58 1019.66 1019.74 1019.84 1019.97 1020.11 1020.28 1020.48 1020.70
1009.10 1009.73 1010.27 1010.69 1011.01 1011.25 1011.43 1011.61 1011.82 1012.08 1012.39 1012.76 1013.14 1013.53 1013.90 1014.21 1014.48 1014.70 1014.90 1015.09 1015.31 1015.56 1015.87 1016.23 1016.64 1017.08 1017.53 1017.96 1018.36 1018.71 1019.01 1019.24 1019.42 1019.56 1019.67 1019.77 1019.86 1019.95 1020.07 1020.21 1020.39 1020.58 1020.80
1008.99 1009.61 1010.15 1010.58 1010.92 1011.19 1011.41 1011.62 1011.84 1012.10 1012.41 1012.75 1013.11 1013.48 1013.82 1014.13 1014.40 1014.64 1014.86 1015.08 1015.31 1015.58 1015.89 1016.25 1016.65 1017.08 1017.51 1017.93 1018.33 1018.68 1018.99 1019.25 1019.45 1019.62 1019.75 1019.86 1019.97 1020.07 1020.20 1020.34 1020.52 1020.71 1020.93
1008.76 1009.37 1009.90 1010.35 1010.71 1011.01 1011.27 1011.51 1011.76 1012.03 1012.33 1012.66 1013.01 1013.36 1013.70 1014.02 1014.31 1014.58 1014.84 1015.10 1015.38 1015.68 1016.01 1016.37 1016.76 1017.17 1017.57 1017.97 1018.35 1018.69 1018.99 1019.25 1019.47 1019.65 1019.80 1019.93 1020.06 1020.18 1020.32 1020.47 1020.64 1020.84 1021.04
1008.40 1008.98 1009.51 1009.96 1010.35 1010.69 1010.99 1011.26 1011.54 1011.83 1012.14 1012.47 1012.82 1013.16 1013.51 1013.85 1014.18 1014.50 1014.81 1015.13 1015.46 1015.81 1016.17 1016.54 1016.93 1017.31 1017.69 1018.06 1018.40 1018.71 1018.99 1019.25 1019.46 1019.66 1019.83 1019.98 1020.12 1020.27 1020.42 1020.57 1020.75 1020.93 1021.13
1007.94 1008.50 1009.01 1009.47 1009.88 1010.25 1010.58 1010.90 1011.21 1011.53 1011.85 1012.19 1012.54 1012.89 1013.25 1013.62 1013.99 1014.36 1014.74 1015.12 1015.51 1015.90 1016.29 1016.69 1017.07 1017.44 1017.79 1018.13 1018.43 1018.72 1018.98 1019.22 1019.44 1019.64 1019.83 1020.01 1020.18 1020.34 1020.51 1020.67 1020.84 1021.01 1021.18
1007.48 1007.99 1008.48 1008.94 1009.37 1009.76 1010.13 1010.49 1010.83 1011.17 1011.51 1011.86 1012.22 1012.58 1012.96 1013.34 1013.74 1014.16 1014.58 1015.01 1015.45 1015.89 1016.31 1016.72 1017.11 1017.47 1017.80 1018.11 1018.40 1018.66 1018.91 1019.15 1019.38 1019.60 1019.82 1020.03 1020.23 1020.42 1020.60 1020.77 1020.93 1021.09 1021.23
1007.10 1007.57 1008.04 1008.49 1008.92 1009.33 1009.73 1010.11 1010.48 1010.84 1011.20 1011.55 1011.91 1012.28 1012.65 1013.05 1013.46 1013.89 1014.33 1014.79 1015.25 1015.71 1016.16 1016.58 1016.97 1017.32 1017.65 1017.95 1018.23 1018.49 1018.74 1019.00 1019.26 1019.52 1019.78 1020.03 1020.27 1020.50 1020.70 1020.89 1021.04 1021.18 1021.29
1006.89 1007.33 1007.76 1008.19 1008.62 1009.04 1009.45 1009.85 1010.23 1010.61 1010.97 1011.33 1011.67 1012.03 1012.38 1012.76 1013.15 1013.57 1014.00 1014.45 1014.90 1015.36 1015.80 1016.22 1016.61 1016.97 1017.30 1017.61 1017.90 1018.18 1018.46 1018.76 1019.06 1019.37 1019.69 1020.00 1020.29 1020.56 1020.80 1020.99 1021.15 1021.27 1021.36
1006.89 1007.29 1007.69 1008.10 1008.51 1008.92 1009.33 1009.73 1010.12 1010.49 1010.85 1011.19 1011.52 1011.84 1012.16 1012.49 1012.83 1013.20 1013.59 1013.99 1014.41 1014.83 1015.25 1015.66 1016.05 1016.41 1016.76 1017.09 1017.41 1017.74 1018.07 1018.41 1018.78 1019.15 1019.53 1019.90 1020.25 1020.56 1020.84 1021.05 1021.22 1021.33 1021.40
1007.08 1007.44 1007.80 1008.17 1008.55 1008.94 1009.33 1009.72 1010.10 1010.46 1010.80 1011.12 1011.41 1011.69 1011.95 1012.22 1012.49 1012.78 1013.09 1013.43 1013.79 1014.16 1014.55 1014.94 1015.33 1015.71 1016.08 1016.45 1016.82 1017.19 1017.58 1017.99 1018.41 1018.84 1019.27 1019.70 1020.10 1020.46 1020.76 1021.00 1021.18 1021.29 1021.34
1007.36 1007.67 1007.99 1008.32 1008.66 1009.01 1009.37 1009.73 1010.09 1010.42 1010.74 1011.02 1011.27 1011.50 1011.70 1011.89 1012.08 1012.29 1012.51 1012.77 1013.06 1013.39 1013.74 1014.11 1014.51 1014.91 1015.32 1015.74 1016.16 1016.59 1017.04 1017.49 1017.96 1018.43 1018.90 1019.36 1019.79 1020.18 1020.52 1020.78 1020.97 1021.08 1021.14
1007.62 1007.89 1008.16 1008.43 1008.72 1009.02 1009.33 1009.65 1009.97 1010.27 1010.55 1010.80 1011.01 1011.18 1011.32 1011.43 1011.55 1011.67 1011.82 1012.01 1012.24 1012.52 1012.85 1013.23 1013.65 1014.09 1014.55 1015.02 1015.50 1015.99 1016.47 1016.96 1017.44 1017.93 1018.41 1018.88 1019.31 1019.71 1020.05 1020.33 1020.54 1020.67 1020.74
1007.76 1007.97 1008.17 1008.38 1008.60 1008.84 1009.09 1009.36 1009.64 1009.90 1010.14 1010.35 1010.51 1010.64 1010.72 1010.78 1010.83 1010.89 1010.98 1011.12 1011.32 1011.59 1011.92 1012.33 1012.78 1013.28 1013.81 1014.34 1014.87 1015.40 1015.91 1016.40 1016.88 1017.35 1017.80 1018.24 1018.65 1019.03 1019.37 1019.65 1019.88 1020.04 1020.13
1007.68 1007.82 1007.95 1008.09 1008.23 1008.40 1008.59 1008.80 1009.03 1009.24 1009.44 1009.61 1009.74 1009.82 1009.87 1009.88 1009.89 1009.91 1009.97 1010.09 1010.29 1010.57 1010.94 1011.40 1011.92 1012.49 1013.09 1013.68 1014.27 1014.82 1015.34 1015.82 1016.26 1016.68 1017.07 1017.45 1017.81 1018.15 1018.47 1018.76 1019.00 1019.20 1019.34
1007.36 1007.43 1007.48 1007.53 1007.60 1007.69 1007.81 1007.96 1008.13 1008.30 1008.46 1008.59 1008.69 1008.74 1008.76 1008.75 1008.74 1008.75 1008.80 1008.93 1009.15 1009.48 1009.91 1010.44 1011.04 1011.69 1012.36 1013.03 1013.66 1014.23 1014.75 1015.19 1015.58 1015.93 1016.24 1016.54 1016.84 1017.13 1017.42 1017.70 1017.97 1018.21 1018.42
Thickness
5778 5776 5773 5771 5768 5763 5758 5755 5752 5748 5745 5742 5739 5736 5734 5732 5731 5729 5726 5725 5725 5724 5724 5724 5721 5721 5721 5719 5718 5717 5716 5716 5716 5715 5714 5717 5718 5717 5715 5716 5716 5715 5713
5771 5769 5768 5766 5763 5759 5756 5752 5748 5745 5742 5740 5737 5735 5733 5731 5729 5727 5724 5723 5722 5721 5721 5718 5718 5717 5716 5714 5714 5713 5713 5714 5713 5711 5709 5709 5710 5711 5715 5713 5712 5712 5712
5764 5763 5763 5761 5759 5756 5753 5750 5746 5742 5739 5737 5734 5731 5728 5726 5725 5723 5721 5719 5717 5717 5716 5715 5714 5713 5714 5712 5710 5710 5709 5708 5710 5711 5709 5706 5705 5708 5710 5710 5710 5709 5709
5760 5759 5758 5756 5755 5753 5750 5746 5743 5739 5736 5734 5731 5728 5725 5723 5721 5720 5718 5716 5714 5713 5712 5711 5710 5709 5710 5708 5708 5708 5707 5705 5706 5707 5707 5708 5709 5704 5703 5705 5707 5706 5705
5755 5753 5753 5752 5751 5749 5746 5743 5739 5734 5732 5730 5728 5724 5722 5719 5718 5717 5714 5713 5711 5709 5708 5707 5706 5705 5706 5705 5704 5704 5704 5704 5704 5704 5704 5703 5703 5705 5702 5699 5700 5703 5704
5750 5748 5748 5747 5745 5745 5742 5739 5734 5730 5728 5726 5723 5720 5717 5715 5713 5712 5711 5710 5709 5707 5704 5703 5702 5701 5701 5700 5699 5699 5700 5700 5700 5701 5702 5701 5700 5700 5700 5697 5696 5697 5700
5744 5742 5741 5740 5739 5738 5736 5733 5729 5725 5723 5721 5718 5716 5713 5711 5709 5708 5707 5706 5705 5703 5700 5700 5698 5697 5696 5696 5695 5694 5696 5695 5695 5695 5697 5699 5700 5700 5699 5697 5696 5694 5696
5738 5736 5735 5734 5733 5732 5730 5727 5723 5720 5717 5715 5712 5710 5708 5708 5707 5704 5703 5702 5701 5700 5697 5695 5694 5693 5693 5693 5691 5692 5692 5691 5691 5692 5692 5693 5696 5697 5696 5695 5692 5689 5690
5730 5729 5729 5728 5727 5726 5723 5721 5717 5714 5712 5710 5707 5705 5703 5703 5702 5700 5699 5698 5696 5695 5693 5692 5690 5689 5688 5688 5687 5688 5687 5688 5688 5690 5688 5689 5692 5692 5693 5692 5691 5686 5683
5724 5722 5721 5722 5721 5720 5717 5715 5712 5709 5707 5706 5704 5702 5700 5698 5697 5696 5694 5693 5691 5690 5689 5687 5686 5685 5684 5684 5683 5683 5683 5683 5683 5684 5683 5684 5687 5688 5688 5688 5688 5687 5684
5717 5716 5715 5715 5714 5712 5710 5707 5705 5703 5702 5701 5699 5697 5696 5694 5693 5691 5690 5688 5687 5685 5684 5683 5682 5681 5681 5680 5679 5680 5679 5679 5679 5680 5680 5680 5680 5682 5684 5684 5684 5683 5682
5711 5710 5708 5707 5706 5704 5702 5701 5699 5698 5697 5696 5694 5692 5690 5689 5687 5685 5684 5683 5682 5681 5680 5679 5678 5677 5677 5676 5675 5676 5676 5675 5675 5676 5676 5676 5677 5676 5677 5678 5679 5679 5678
5702 5702 5700 5698 5697 5696 5695 5694 5693 5692 5692 5691 5688 5686 5684 5683 5681 5680 5679 5679 5677 5676 5676 5674 5673 5673 5673 5672 5672 5672 5673 5673 5673 5672 5672 5672 5671 5670 5672 5671 5673 5674 5675
5694 5693 5691 5689 5689 5689 5688 5687 5686 5685 5685 5684 5682 5680 5678 5677 5676 5676 5675 5674 5673 5672 5671 5670 5669 5670 5669 5669 5669 5669 5669 5669 5669 5669 5668 5668 5667 5666 5666 5666 5666 5668 5668
5686 5685 5683 5682 5682 5681 5680 5679 5679 5678 5678 5677 5676 5675 5674 5673 5671 5670 5670 5669 5668 5668 5667 5666 5665 5665 5665 5665 5664 5664 5665 5664 5664 5665 5664 5664 5662 5660 5659 5661 5662 5662 5662
5679 5677 5676 5675 5674 5673 5672 5672 5671 5671 5671 5670 5670 5670 5669 5667 5666 5665 5664 5663 5663 5663 5662 5662 5661 5661 5661 5659 5657 5657 5660 5660 5660 5660 5660 5660 5657 5654 5652 5652 5652 5653 5654
5671 5669 5668 5668 5667 5666 5666 5665 5665 5664 5664 5664 5664 5664 5663 5662 5661 5661 5659 5658 5657 5658 5657 5657 5657 5657 5656 5652 5651 5650 5653 5656 5656 5655 5654 5656 5656 5652 5651 5648 5646 5646 5645
5663 5662 5662 5661 5661 5660 5660 5659 5659 5658 5657 5657 5657 5657 5657 5656 5656 5655 5654 5653 5653 5653 5653 5653 5653 5652 5651 5647 5645 5644 5647 5651 5652 5652 5651 5650 5649 5648 5646 5645 5645 5644 5643
5656 5655 5655 5655 5654 5653 5653 5652 5651 5651 5651 5650 5650 5650 5650 5650 5649 5649 5648 5648 5648 5648 5648 5649 5648 5647 5646 5641 5640 5638 5644 5646 5647 5648 5647 5646 5645 5641 5638 5639 5640 5640 5640
5648 5648 5648 5648 5647 5646 5646 5645 5644 5643 5643 5643 5643 5643 5643 5643 5643 5643 5644 5644 5644 5644 5644 5644 5643 5643 5642 5637 5635 5633 5640 5641 5642 5643 5643 5640 5639 5636 5633 5634 5635 5634 5635
5640 5640 5640 5640 5639 5639 5639 5637 5637 5636 5637 5637 5637 5636 5636 5637 5638 5638 5638 5638 5638 5638 5638 5638 5638 5638 5637 5634 5631 5629 5634 5636 5637 5638 5639 5639 5632 5629 5627 5627 5630 5630 5628
5632 5632 5632 5632 5632 5632 5632 5631 5630 5630 5630 5631 5631 5631 5631 5632 5633 5632 5633 5633 5632 5633 5633 5633 5633 5634 5632 5630 5627 5625 5625 5626 5629 5632 5634 5633 5627 5624 5622 5622 5623 5622 5620
5624 5624 5624 5624 5624 5625 5625 5624 5624 5624 5623 5624 5624 5624 5625 5625 5626 5627 5628 5628 5628 5629 5630 5630 5630 5631 5630 5627 5623 5621 5620 5619 5622 5626 5625 5623 5621 5619 5619 5618 5617 5616 5619
5617 5617 5617 5617 5617 5617 5618 5618 5617 5617 5617 5617 5617 5618 5619 5620 5620 5621 5624 5624 5625 5625 5625 5625 5625 5625 5625 5625 5623 5620 5617 5615 5616 5618 5619 5617 5615 5615 5616 5616 5615 5616 5619
5610 5610 5610 5610 5610 5610 5610 5611 5611 5611 5610 5611 5611 5613 5614 5614 5614 5615 5616 5618 5619 5619 5617 5619 5620 5619 5619 5617 5613 5613 5614 5614 5613 5612 5615 5617 5617 5617 5618 5618 5618 5618 5617
5603 5603 5603 5603 5603 5603 5603 5604 5604 5604 5603 5604 5605 5607 5608 5608 5608 5609 5610 5609 5609 5608 5607 5606 5606 5610 5608 5606 5605 5604 5605 5604 5603 5605 5612 5614 5616 5617 5617 5617 5617 5615 5615